User: anonymous   Login
Location: The Saddle
(36.8333°N, 80.3417°W)
Time: 05:31:28
(UTC-05:00)
Language:

SR - Orbit

View from above orbital plane
View from above orbital plane
View from above satellite
View from above satellite

Ground track
Ground track

The orbit data is extracted from the following two-line orbital elements,

1 00046U 60007B   22018.86262428  .00000426  00000-0  10808-3 0  9996
2 00046  66.6905 278.0305 0203579  57.3124 304.7437 14.49506102223228
Epoch (UTC): 18 January 2022 20:42:10
Eccentricity: 0.0203579
inclination: 66.6905°
perigee height: 582 km
apogee height: 872 km
right ascension of ascending node: 278.0305°
argument of perigee: 57.3124°
revolutions per day: 14.49506102
mean anomaly at epoch: 304.7437°
orbit number at epoch: 22322

The dashed part of the orbit path shows where the satellite is in the earth's shadow,  

DLR